Wind_Speed
29 29 28 27 26 25 25 26 26 25 26 26 27 27 28 28 29 31 32 32 33 34 36 36 37 38 40 42 43 44 45 46 47 47 48 49 52 54 54 55 56 56 55 55
29 29 28 27 26 26 26 27 26 26 26 26 27 27 28 28 29 29 31 32 33 35 36 37 38 39 40 41 42 43 44 46 47 48 48 49 50 52 53 54 55 56 57 56
29 29 29 28 27 27 27 27 27 27 26 26 26 26 27 28 28 28 29 31 32 34 35 36 38 40 41 42 42 43 44 46 47 47 48 49 50 52 54 54 54 55 57 58
30 29 29 29 28 28 27 27 27 27 26 26 26 26 26 27 28 28 27 29 31 32 34 36 37 38 41 42 43 44 45 46 47 48 48 48 49 50 52 55 55 56 56 58
30 30 30 29 28 28 28 27 27 27 27 27 27 26 26 27 28 28 27 28 30 32 33 35 36 37 38 40 42 43 44 46 47 48 49 49 49 50 51 53 55 56 57 58
30 30 30 29 29 28 28 27 27 28 27 27 27 27 26 27 27 28 28 28 29 31 32 33 35 36 38 39 41 42 43 44 47 48 48 48 49 50 51 51 53 55 57 58
30 30 30 30 29 28 28 28 28 28 28 28 28 27 26 27 27 27 28 28 29 30 32 32 33 35 36 37 39 41 42 43 45 47 47 47 48 50 51 51 52 55 57 58
30 30 30 30 29 29 29 29 29 29 29 29 28 28 28 27 27 27 28 28 29 29 30 31 32 33 33 34 36 38 40 42 43 44 46 47 48 48 49 51 52 54 56 58
31 31 30 30 29 29 29 29 29 29 29 29 28 28 28 28 28 27 28 28 29 29 28 29 30 31 31 32 33 35 37 39 40 41 42 43 44 45 47 49 51 52 53 55
31 30 30 30 30 30 30 29 29 29 29 28 28 28 28 28 28 28 27 28 29 28 28 29 30 30 30 30 31 33 35 36 38 38 39 41 42 43 44 46 47 47 49 51
30 30 30 30 30 30 30 30 29 29 29 28 27 27 27 28 28 28 28 28 29 28 27 28 29 29 30 30 31 31 32 33 35 36 37 38 40 40 41 42 43 44 45 48
30 30 31 30 30 30 30 30 29 29 29 29 28 27 27 28 28 28 28 29 29 28 28 28 28 28 29 29 30 29 30 30 32 34 34 35 36 38 38 38 39 41 42 44
30 30 30 30 29 29 29 29 29 29 29 29 28 28 28 28 28 29 29 29 29 28 28 28 28 28 29 29 29 29 29 30 31 32 32 34 34 35 35 37 37 38 39 40
29 29 29 29 28 28 28 28 29 29 28 28 28 28 28 28 28 29 29 29 29 28 28 28 28 28 28 29 29 28 28 29 30 31 32 33 34 34 34 35 36 37 38 39
28 28 27 27 27 27 28 28 28 28 28 28 28 28 28 28 28 28 28 28 28 28 28 28 28 28 28 28 28 28 28 28 29 30 31 32 33 33 33 34 35 36 37 38
27 26 26 26 26 27 27 28 28 28 27 27 27 27 27 27 27 27 27 28 28 27 27 27 26 26 27 27 27 28 28 28 28 28 29 30 31 32 33 34 34 35 36 37
25 25 25 25 26 26 27 28 28 27 27 26 26 27 27 26 27 27 27 28 28 27 26 26 25 25 25 26 26 26 27 27 28 28 28 28 30 31 32 33 34 34 35 36
24 24 24 25 26 27 27 28 27 27 26 26 26 26 26 27 27 27 27 27 27 26 25 24 24 24 24 24 24 24 25 25 26 27 28 27 28 29 30 31 32 33 34 35
23 23 24 24 25 25 26 26 26 26 26 25 26 26 26 26 27 27 27 26 25 24 23 23 23 23 22 22 22 22 23 24 25 26 26 27 27 28 29 30 31 32 34 35
24 24 24 24 24 25 25 26 26 26 25 25 25 26 26 26 26 26 25 25 24 23 23 22 22 22 22 21 21 21 21 22 23 24 25 26 27 27 28 29 30 31 32 33
23 23 24 24 24 25 25 25 25 25 24 24 24 24 24 24 24 24 24 23 22 21 21 21 20 20 20 20 20 21 21 21 22 23 24 25 26 27 28 28 29 30 31 31
23 23 23 23 24 24 24 24 24 23 23 23 23 23 23 23 23 23 23 22 21 20 20 20 20 19 19 19 20 20 20 21 21 22 23 24 25 26 26 27 28 29 30 31
23 23 23 23 24 24 23 23 23 22 22 22 22 21 22 22 22 22 21 20 20 19 19 19 19 19 19 18 18 19 19 19 20 21 21 22 23 24 25 26 27 28 28 29
23 23 23 23 23 23 22 22 21 21 21 21 21 21 21 21 21 21 20 19 19 19 19 19 18 18 18 18 18 18 18 19 20 20 20 21 21 22 22 23 24 25 26 27
23 23 23 23 22 21 21 21 21 21 21 21 20 21 21 21 20 20 19 19 18 18 18 17 17 17 17 17 17 18 18 18 18 19 19 19 20 20 21 21 22 23 24 25
23 22 22 21 21 21 20 20 20 21 21 20 21 21 22 21 21 20 19 19 18 18 18 17 17 17 17 16 16 16 16 17 17 17 18 19 19 19 20 20 21 22 22 23
22 22 22 21 21 21 21 21 21 21 21 21 21 21 22 21 21 20 19 19 18 18 18 18 18 17 17 16 16 16 16 16 16 17 17 17 18 18 18 19 19 20 21 22
Wind_Direction
310 308 307 306 304 301 299 298 296 295 292 290 288 285 283 281 279 273 268 264 260 254 250 249 249 249 248 248 245 245 245 245 245 243 243 243 241 239 238 236 235 234 234 234
308 306 305 304 303 301 299 299 298 296 295 293 289 287 285 283 282 276 270 267 263 259 254 250 249 250 250 249 248 248 248 248 246 245 245 245 243 240 239 238 237 236 235 234
307 305 303 304 304 301 300 299 298 297 296 294 292 290 288 286 285 281 273 268 264 260 256 254 253 251 250 252 251 251 251 250 247 245 245 245 243 241 239 238 238 237 236 234
308 307 305 306 304 302 301 300 298 297 296 295 293 292 290 287 285 283 277 271 267 263 260 258 256 255 253 252 253 252 252 250 248 246 246 245 243 241 240 239 238 237 236 234
308 307 306 305 305 304 302 300 299 297 296 295 294 293 290 288 286 285 281 275 271 266 264 262 259 257 255 254 254 253 252 251 250 248 247 246 244 242 241 241 240 239 237 237
306 306 307 307 306 305 303 301 300 299 297 296 294 292 291 288 287 286 285 282 279 273 269 267 264 260 259 258 255 254 254 251 250 249 248 247 245 244 244 243 242 239 239 239
304 304 306 306 306 305 303 303 301 300 298 296 294 292 291 289 288 289 287 284 283 279 274 271 268 265 263 260 256 255 254 252 251 249 248 247 247 246 246 245 244 242 241 241
301 302 305 305 304 303 302 302 301 300 297 295 293 291 290 288 289 289 289 286 285 282 278 274 271 270 267 263 259 256 254 252 250 250 250 250 249 247 247 246 246 245 243 242
297 300 301 302 302 302 301 301 302 300 297 295 292 290 289 288 288 289 289 288 287 285 281 278 275 272 269 265 261 257 254 251 249 248 249 248 247 247 246 246 247 246 245 243
296 298 297 299 300 300 301 301 302 302 300 298 295 292 290 289 288 287 288 288 288 287 283 279 277 273 270 266 263 261 257 252 249 248 248 248 247 247 246 245 246 246 244 243
295 295 295 296 297 299 300 301 301 301 300 299 297 295 291 289 288 286 286 287 288 286 284 281 278 274 272 268 264 261 257 253 250 250 250 249 248 248 248 247 246 244 243 242
293 294 294 295 296 297 298 298 299 300 300 298 297 295 293 292 290 288 286 286 287 285 284 281 278 276 273 270 266 262 258 255 253 252 250 248 248 247 248 247 245 245 243 242
292 292 293 295 296 297 297 299 299 299 298 296 294 294 293 293 292 291 289 287 286 284 282 281 279 276 273 270 268 265 261 257 256 254 251 248 247 247 246 245 245 244 243 242
293 293 293 294 295 297 298 299 299 298 297 296 294 293 293 294 293 293 291 290 288 285 283 282 279 275 272 269 267 265 262 258 257 255 253 250 248 248 247 247 246 245 244 242
295 295 296 296 296 297 298 298 299 298 297 296 295 293 293 294 295 294 293 292 290 289 286 284 281 277 272 268 266 264 263 260 258 255 252 250 249 249 248 248 247 246 245 244
296 296 296 296 297 297 298 299 299 299 297 296 295 294 294 295 295 295 294 294 293 291 289 286 282 278 274 270 268 265 262 260 257 256 254 251 251 250 250 249 248 247 245 244
298 298 298 297 297 298 298 299 299 298 296 296 296 295 295 295 295 295 295 295 295 293 291 287 283 278 275 272 269 266 263 260 258 257 255 254 252 252 250 249 248 248 246 245
300 299 299 299 298 298 299 300 300 299 297 296 297 297 296 295 296 297 296 295 295 293 290 287 283 279 276 273 270 267 264 261 259 258 256 256 255 253 252 250 249 248 247 245
300 300 300 299 300 300 301 301 301 301 300 298 299 299 299 298 298 298 298 296 295 292 289 287 284 281 277 274 272 269 267 263 260 258 257 256 256 255 253 251 249 248 246 245
300 300 301 301 301 302 303 304 303 302 301 300 300 301 301 300 300 300 300 298 296 292 289 286 282 280 278 275 273 270 267 265 261 259 258 257 257 256 254 251 250 249 247 246
302 302 303 303 304 304 304 305 304 304 303 302 302 303 302 302 302 301 301 298 296 294 290 287 284 281 277 273 273 271 268 266 263 261 260 259 257 256 255 253 251 250 248 245
305 305 305 306 306 306 306 306 306 306 305 305 305 306 305 305 305 303 301 298 297 295 293 290 286 282 278 274 273 272 270 267 265 263 262 261 260 259 257 254 251 249 247 245
307 307 307 308 308 307 307 307 307 307 307 308 309 308 308 309 308 306 303 300 299 296 294 291 289 287 282 278 273 270 268 267 266 265 264 264 263 261 258 254 251 247 245 244
309 309 309 309 309 309 309 308 308 308 309 311 311 310 310 311 310 309 305 302 301 299 296 293 290 287 284 280 275 272 270 269 267 266 265 265 263 261 258 254 251 248 247 246
309 309 309 309 310 310 310 309 308 309 310 310 310 310 311 311 311 310 307 305 303 302 299 296 292 289 286 282 278 275 273 270 268 267 267 266 264 262 259 255 252 250 248 246
311 310 310 310 310 309 310 310 309 309 309 309 308 309 310 310 310 309 307 304 302 300 298 296 294 291 287 284 280 277 273 271 271 270 269 268 266 263 259 255 251 249 248 247
310 309 309 309 309 309 309 309 309 308 307 307 308 309 310 310 310 309 308 305 302 300 297 295 293 291 288 284 281 279 276 274 273 273 272 270 267 263 258 254 250 247 246 246
Height
5594 5589 5585 5581 5578 5574 5570 5566 5563 5561 5558 5556 5552 5549 5547 5545 5542 5541 5541 5541 5541 5541 5542 5543 5544 5546 5548 5550 5552 5554 5557 5560 5562 5565 5569 5572 5576 5580 5585 5590 5595 5601 5607 5613
5587 5582 5577 5574 5571 5567 5563 5560 5556 5553 5551 5548 5545 5542 5539 5537 5535 5533 5533 5532 5532 5533 5533 5534 5535 5537 5538 5540 5542 5544 5546 5548 5551 5554 5557 5560 5564 5568 5573 5577 5583 5588 5594 5600
5579 5574 5570 5568 5565 5560 5557 5553 5549 5546 5545 5541 5538 5535 5532 5530 5528 5526 5525 5524 5524 5523 5524 5525 5526 5527 5529 5530 5531 5533 5535 5537 5539 5542 5545 5548 5552 5556 5560 5565 5570 5575 5581 5587
5570 5567 5563 5563 5557 5553 5549 5546 5542 5539 5536 5533 5530 5528 5525 5523 5520 5518 5517 5516 5515 5514 5514 5515 5515 5516 5518 5519 5520 5522 5523 5525 5527 5530 5532 5535 5539 5543 5548 5552 5557 5563 5568 5574
5563 5558 5556 5554 5549 5545 5541 5539 5535 5531 5529 5526 5523 5520 5518 5515 5513 5511 5509 5508 5506 5505 5505 5504 5505 5505 5506 5507 5508 5510 5511 5513 5515 5517 5520 5523 5527 5531 5535 5539 5544 5549 5555 5561
5555 5551 5548 5547 5542 5536 5534 5531 5528 5523 5521 5518 5515 5513 5512 5508 5506 5503 5501 5500 5498 5496 5495 5495 5494 5494 5495 5496 5497 5498 5499 5501 5503 5505 5508 5511 5515 5519 5522 5526 5531 5536 5542 5547
5548 5543 5541 5538 5533 5529 5527 5524 5519 5516 5513 5510 5507 5505 5503 5500 5498 5496 5494 5492 5490 5488 5486 5485 5484 5484 5484 5484 5485 5486 5487 5489 5491 5493 5496 5499 5503 5506 5510 5514 5519 5523 5529 5534
5540 5536 5536 5530 5525 5523 5519 5515 5511 5508 5505 5502 5499 5496 5494 5492 5490 5488 5485 5483 5481 5479 5477 5476 5475 5474 5473 5474 5474 5474 5476 5477 5479 5481 5484 5487 5490 5494 5498 5502 5506 5510 5515 5520
5533 5531 5526 5521 5518 5514 5511 5507 5504 5500 5497 5494 5491 5489 5486 5483 5481 5479 5477 5475 5472 5470 5469 5467 5465 5464 5464 5463 5463 5464 5465 5466 5468 5470 5472 5475 5478 5481 5485 5489 5493 5497 5501 5506
5523 5521 5517 5513 5509 5506 5503 5499 5496 5492 5489 5485 5483 5480 5477 5475 5472 5470 5468 5466 5464 5462 5460 5458 5456 5455 5454 5454 5453 5453 5454 5455 5457 5459 5461 5463 5466 5469 5473 5476 5480 5484 5488 5492
5514 5512 5508 5505 5501 5498 5495 5491 5488 5484 5480 5477 5474 5471 5469 5466 5464 5462 5459 5457 5455 5453 5451 5449 5447 5446 5445 5444 5444 5444 5444 5445 5446 5448 5450 5452 5455 5458 5461 5464 5468 5471 5475 5479
5506 5503 5499 5497 5493 5490 5487 5483 5480 5476 5473 5469 5466 5463 5461 5458 5455 5453 5451 5448 5446 5444 5442 5440 5438 5437 5436 5435 5434 5434 5435 5436 5437 5438 5440 5442 5444 5447 5449 5453 5456 5459 5462 5467
5496 5493 5490 5487 5484 5481 5478 5475 5471 5468 5465 5461 5458 5455 5453 5450 5447 5444 5442 5439 5437 5435 5433 5431 5429 5428 5427 5425 5425 5425 5426 5426 5427 5428 5430 5432 5434 5436 5439 5442 5444 5448 5451 5455
5487 5485 5482 5479 5476 5473 5470 5467 5463 5460 5457 5453 5451 5448 5445 5442 5439 5436 5433 5431 5428 5426 5424 5422 5420 5419 5417 5416 5416 5416 5416 5417 5418 5419 5420 5422 5424 5426 5429 5431 5434 5436 5440 5444
5479 5476 5474 5470 5467 5464 5461 5459 5455 5452 5449 5446 5443 5440 5437 5434 5431 5428 5425 5422 5419 5417 5415 5413 5411 5409 5408 5407 5407 5407 5407 5408 5408 5409 5411 5413 5414 5416 5419 5421 5423 5426 5429 5433
5471 5468 5465 5462 5460 5457 5454 5451 5448 5444 5441 5438 5435 5432 5429 5426 5423 5420 5417 5414 5411 5408 5406 5404 5402 5400 5399 5398 5398 5398 5398 5399 5400 5401 5402 5403 5405 5407 5409 5411 5414 5416 5419 5422
5463 5460 5457 5455 5452 5449 5446 5443 5440 5437 5433 5430 5427 5424 5421 5418 5415 5412 5409 5406 5403 5400 5398 5395 5393 5392 5390 5389 5389 5389 5390 5390 5391 5392 5393 5394 5396 5398 5399 5401 5404 5406 5409 5412
5456 5453 5450 5447 5444 5442 5439 5435 5432 5429 5426 5423 5420 5417 5414 5411 5408 5404 5401 5398 5395 5392 5390 5387 5385 5384 5383 5382 5381 5381 5381 5382 5383 5383 5385 5386 5387 5388 5390 5391 5393 5396 5398 5401
5448 5445 5442 5439 5437 5434 5431 5428 5425 5421 5418 5415 5412 5409 5406 5403 5400 5397 5393 5390 5387 5385 5383 5380 5378 5377 5375 5374 5374 5373 5373 5374 5374 5375 5376 5377 5378 5379 5380 5382 5384 5386 5388 5390
5441 5438 5435 5432 5429 5427 5424 5421 5417 5414 5411 5408 5405 5402 5399 5395 5392 5389 5386 5383 5380 5378 5375 5373 5371 5370 5369 5368 5367 5366 5366 5366 5366 5367 5367 5368 5369 5370 5371 5372 5374 5376 5378 5380
5434 5431 5428 5426 5423 5420 5417 5413 5410 5407 5404 5401 5398 5395 5392 5388 5385 5382 5379 5376 5373 5371 5368 5366 5365 5363 5362 5361 5360 5359 5359 5359 5359 5359 5359 5360 5361 5361 5362 5363 5365 5366 5368 5371
5427 5424 5422 5419 5416 5413 5410 5406 5403 5400 5397 5394 5391 5388 5385 5382 5378 5375 5372 5369 5367 5364 5362 5360 5358 5356 5355 5354 5353 5352 5352 5352 5352 5352 5352 5352 5352 5353 5353 5354 5355 5357 5359 5361
5421 5418 5415 5412 5409 5406 5403 5400 5397 5394 5391 5388 5385 5382 5379 5376 5372 5369 5366 5363 5360 5358 5356 5354 5352 5350 5349 5348 5347 5346 5345 5345 5345 5345 5345 5345 5345 5345 5345 5346 5347 5348 5350 5352
5414 5412 5409 5406 5403 5400 5397 5394 5391 5388 5385 5382 5379 5376 5373 5370 5367 5363 5360 5357 5355 5352 5350 5348 5346 5344 5343 5342 5341 5340 5339 5339 5338 5338 5338 5337 5337 5337 5338 5338 5339 5340 5342 5344
5408 5405 5402 5399 5397 5394 5391 5388 5385 5382 5379 5376 5373 5371 5368 5364 5361 5358 5355 5352 5349 5347 5345 5342 5340 5339 5337 5336 5335 5334 5333 5332 5332 5331 5331 5331 5330 5330 5330 5331 5332 5333 5334 5336
5401 5399 5396 5393 5391 5388 5385 5382 5379 5377 5374 5371 5368 5365 5362 5359 5356 5352 5349 5347 5344 5341 5339 5337 5335 5333 5332 5330 5329 5328 5327 5326 5325 5325 5324 5324 5323 5323 5323 5324 5325 5326 5328 5329
5395 5393 5390 5387 5385 5382 5379 5376 5373 5371 5368 5365 5362 5359 5356 5353 5350 5347 5344 5341 5338 5336 5334 5331 5329 5328 5326 5324 5323 5322 5321 5320 5319 5319 5318 5317 5317 5317 5317 5318 5319 5320 5321 5323